This is the latest recevied weather packets stored in our database for station/object W8RSN-13. If no packets are shown the sender has not sent any weather packets the latest 10 day(s).
| Time | Temp. | Humidity | Pressure | Rain* | Wind** | Luminosity | Snow |
|---|---|---|---|---|---|---|---|
| 1788626062 | 23.89° C | 37% | 1016.9 hPa | - | - | - | - |
| 1788625761 | 23.89° C | 38% | 1016.8 hPa | - | - | - | - |
| 1788625460 | 23.89° C | 38% | 1016.8 hPa | - | - | - | - |
| 1788625159 | 23.33° C | 38% | 1016.7 hPa | - | - | - | - |
| 1788624858 | 23.33° C | 39% | 1016.7 hPa | - | - | - | - |
| 1788624557 | 23.33° C | 39% | 1016.7 hPa | - | - | - | - |
| 1788624257 | 22.78° C | 39% | 1016.7 hPa | - | - | - | - |
| 1788623956 | 22.22° C | 41% | 1016.5 hPa | - | - | - | - |
| 1788623675 | 22.22° C | 42% | 1016.7 hPa | - | - | - | - |
| 1788623374 | 22.22° C | 45% | 1016.6 hPa | - | - | - | - |
| 1788623073 | 21.67° C | 45% | 1016.6 hPa | - | - | - | - |
| 1788622772 | 21.67° C | 44% | 1016.4 hPa | - | - | - | - |
| 1788622471 | 21.11° C | 46% | 1016.6 hPa | - | - | - | - |
| 1788622170 | 21.11° C | 47% | 1016.5 hPa | - | - | - | - |
| 1788621869 | 20.56° C | 48% | 1016.4 hPa | - | - | - | - |
| 1788621568 | 20.56° C | 49% | 1016.5 hPa | - | - | - | - |
| 1788621268 | 20° C | 51% | 1016.6 hPa | - | - | - | - |
| 1788620967 | 20° C | 51% | 1016.4 hPa | - | - | - | - |
| 1788620666 | 19.44° C | 55% | 1016.4 hPa | - | - | - | - |
| 1788620365 | 18.89° C | 56% | 1016.4 hPa | - | - | - | - |
| 1788620064 | 18.33° C | 57% | 1016.4 hPa | - | - | - | - |
| 1788619763 | 17.78° C | 59% | 1016.4 hPa | - | - | - | - |
| 1788619462 | 17.78° C | 59% | 1016.3 hPa | - | - | - | - |
| 1788619162 | 17.22° C | 60% | 1016.3 hPa | - | - | - | - |
| 1788618860 | 17.22° C | 59% | 1016.2 hPa | - | - | - | - |
* Rain since midnight (hover to see other rain measurements)
** Current wind speed in m/s (hover to see current wind gust speed)